www.pogodaiklimat.ru
ПОГОДА в Усти-над-Лабем
Время
(UTC), дата
16 27.07
17 27.07
18 27.07
19 27.07
20 27.07
21 27.07
22 27.07
23 27.07
00 28.07
01 28.07
02 28.07
03 28.07
04 28.07
05 28.07
06 28.07
07 28.07
08 28.07
09 28.07
10 28.07
11 28.07
12 28.07
13 28.07
14 28.07
15 28.07
16 28.07
17 28.07
18 28.07
19 28.07
20 28.07
21 28.07
22 28.07
23 28.07
00 29.07
01 29.07
02 29.07
03 29.07
04 29.07
05 29.07
06 29.07
07 29.07
08 29.07
09 29.07
10 29.07
11 29.07
12 29.07
13 29.07
14 29.07
15 29.07
16 29.07
17 29.07
18 29.07
19 29.07
20 29.07
21 29.07
22 29.07
23 29.07
00 30.07
01 30.07
02 30.07
03 30.07
04 30.07
05 30.07
06 30.07
07 30.07
08 30.07
09 30.07
10 30.07
11 30.07
12 30.07
13 30.07
14 30.07
15 30.07
16 30.07
17 30.07
18 30.07
19 30.07
20 30.07
21 30.07
22 30.07
23 30.07
00 31.07
01 31.07
02 31.07
03 31.07
04 31.07
05 31.07
06 31.07
07 31.07
08 31.07
09 31.07
10 31.07
11 31.07
12 31.07
13 31.07
14 31.07
15 31.07
16 31.07
17 31.07
18 31.07
19 31.07
20 31.07
21 31.07
22 31.07
23 31.07
00 1.08
01 1.08
02 1.08
03 1.08
04 1.08
05 1.08
06 1.08
07 1.08
08 1.08
09 1.08
10 1.08
11 1.08
12 1.08
13 1.08
14 1.08
15 1.08
16 1.08
17 1.08
18 1.08
19 1.08
20 1.08
21 1.08
22 1.08
23 1.08
00 2.08
01 2.08
02 2.08
03 2.08
04 2.08
05 2.08
06 2.08
07 2.08
08 2.08
09 2.08
10 2.08
11 2.08
12 2.08
13 2.08
14 2.08
15 2.08
16 2.08
17 2.08
18 2.08
19 2.08
20 2.08
21 2.08
22 2.08
23 2.08
00 3.08
01 3.08
02 3.08
03 3.08
04 3.08
05 3.08
06 3.08
07 3.08
08 3.08
09 3.08
10 3.08
11 3.08
12 3.08
13 3.08
14 3.08
Ветер
(напр.,м/с)
Видим. Явления Облачность Т
(С)
Тd
(С)
f
(%)
Тe
(С)
Тes
(С)
Комфортность P
(гПа)
Po
(гПа)
Тmin
(С)
Tmax
(С)
R
(мм)
R24
(мм)
S
(см)
Ю 4 35 км н/о +26.3 +7.6 30 +26 +26 жарко 1013.4 970.9
Ю 2 35 км н/о +25.5 +8.8 35 +26 +26 жарко 1013.0 970.4
ЮВ 2 >70 км 9/0
[Ac As Ci sp]
+23.9 +9.2 39 +25 +25 комфорт 1013.4 970.5 +27.2 1.8
В 2 >70 км 8/0
[Ac As Ci sp]
+22.4 +8.9 42 +24 +24 комфорт 1013.3 970.2
ЮВ 2 >70 км 8/0
[Ac As Ci fib]
+21.9 +9.0 44 +23 +23 комфорт 1013.1 970.0
Ю 1 35 км н/о +19.7 +8.8 49 +22 +22 комфорт 1013.5 970.0 1.8
Ю 2 35 км н/о +18.8 +9.4 54 +20 +20 1013.5 969.9
ЮВ 1 35 км н/о +19.4 +9.5 53 +21 +21 комфорт 1012.8 969.3
ЮВ 1 35 км {дымка} н/о +18.8 +9.7 55 +21 +21 комфорт 1012.5 969.0 1.8
Ю 1 35 км н/о +17.2 +9.5 61 +18 +18 1012.6 968.8
ЮВ 2 35 км н/о +17.5 +9.4 59 +18 +18 1012.0 968.3
нст 1 35 км н/о +16.4 +9.7 65 +17 +17 1011.8 967.9 1.8
Ю 2 35 км н/о +16.1 +9.7 66 +16 +16 1012.1 968.2
ЮВ 1 35 км н/о +17.3 +10.9 66 +18 +18 1011.6 967.9
Ю 2 >70 км 8/0
[Ac cast Ci sp]
+18.0 +11.8 67 +19 +20 1011.3 967.7 +15.5 1.8
Ю 2 >70 км 8/0
[Ac cast Ci sp]
+18.9 +11.9 64 +20 +24 1011.1 967.7
ЮЗ 3 60 км 5/0
[Ac cast Ci sp]
+21.4 +11.4 53 +23 +30 комфорт 1010.5 967.4
ЮЗ 4 60 км 8/1 1200 м
[Cu hum Ac cast Ci sp]
+24.3 +12.9 49 +26 +31 жарко 1009.9 967.3 1.7
ЮЗ 3 60 км 8/1 1230 м
[Cu hum Ac cast Ci sp]
+25.6 +13.1 46 +28 +34 жарко 1009.5 967.1
З 2 >70 км 9/1 1000 м
[Cu med, cong Ac cast Cs]
+28.4 +13.2 39 +30 +38 жарко 1008.7 966.7
З 4 >70 км 9/6 1500 м
[Cu med, cong Ac trans Cs]
+27.6 +12.9 40 +29 +32 жарко 1008.7 966.6 1.8
З 6-11
{11}
>70 км 9/1 1500 м
[Cu med, cong Ac As Cs]
+27.6 +12.5 39 +29 +32 жарко 1008.8 966.7
З 6 >70 км 9/3 1500 м
[Cu med, cong Ac trans Cs]
+26.6 +13.2 44 +29 +30 жарко 1009.4 967.1
З 8
{14}
>70 км 9/1 1500 м
[Cu hum Ac trans Cs]
+26.7 +11.0 37 +28 +28 жарко 1009.6 967.3 1.8
З 5
{13}
35 км н/о +26.4 +10.0 36 +27 +27 жарко 1009.4 967.1
З 4 35 км н/о +26.3 +9.5 35 +27 +27 жарко 1009.6 967.2
СЗ 2
{14}
>70 км 9/1 1000 м
[Cu med, cong Ac trans Cs]
+24.3 +10.4 41 +25 +25 комфорт 1010.2 967.6 +28.6 1.8
СЗ 3 >70 км 8/1 1320 м
[Cu med, cong Ci sp]
+23.0 +10.5 45 +25 +25 комфорт 1010.2 967.4
С 5 70 км 6/4 1500 м
[Cu med, cong Ac As Ci fib]
+22.8 +10.8 47 +25 +25 комфорт 1010.8 967.9
С 2 35 км н/о +21.5 +11.2 52 +23 +23 комфорт 1012.4 969.3 1.8
С 1 35 км н/о +19.3 +10.5 57 +21 +21 комфорт 1013.2 969.7
С 7-12
{11}
35 км н/о +19.3 +11.2 59 +20 +20 1013.9 970.4
С 6-12
{13}
35 км {дымка} н/о +18.1 +10.4 61 +18 +18 1014.9 971.2 1.8
С 5
{11}
35 км н/о +17.5 +9.4 59 +17 +17 1015.1 971.3
С 6 35 км н/о +17.0 +8.0 55 +16 +16 1015.6 971.6
С 4
{11}
35 км н/о +16.5 +7.8 56 +16 +16 1016.1 972.0 1.8
С 2 35 км н/о +16.1 +8.3 60 +16 +16 1016.6 972.5 1.8
СЗ 2 35 км н/о +16.8 +8.7 59 +17 +17 1017.3 973.2
СЗ 2
{11}
>70 км 6/5 1500 м
[Cu hum Ac trans]
+18.5 +9.0 54 +19 +21 1017.3 973.5 +15.5 1.8
СЗ 3 60 км 1/1 1320 м
[Cu hum Ac trans]
+18.8 +9.1 53 +20 +24 1017.7 973.9
>70 км 3/3 1350 м
[Cu med, cong Ac trans]
+20.3 +9.3 49 1017.7 974.1
З 5 >70 км 3/3 1500 м
[Cu med, cong]
+20.8 +7.8 43 +22 +27 комфорт 1017.9 974.4 1.8
З 5 >70 км 3/3 1500 м
[Cu hum Ci fib]
+21.7 +7.3 39 +23 +28 комфорт 1017.8 974.4
З 4
{11}
>70 км 3/3 1500 м
[Cu hum]
+23.2 +7.9 37 +24 +32 комфорт 1017.3 974.2
З 3
{11}
>70 км 3/3 1500 м
[Cu hum Ci fib]
+24.3 +7.2 33 +24 +33 комфорт 1017.0 974.0 1.8
З 3 >70 км 3/1 1500 м
[Cu hum Ci fib]
+24.6 +7.0 32 +25 +34 комфорт 1016.7 973.8
СЗ 4 >70 км 3/3 1500 м
[Cu hum Ci fib]
+24.0 +7.7 35 +24 +29 комфорт 1016.8 973.8
З 3 >70 км 4/1 2000 м
[Cu hum Ci fib]
+24.8 +8.1 34 +25 +30 комфорт 1016.4 973.5 1.8
СЗ 4 30 км н/о +24.6 +8.0 35 +25 +25 комфорт 1016.3 973.4 1.8
С 4 35 км н/о +23.8 +7.5 35 +24 +24 комфорт 1016.7 973.7 1.8
С 4 >70 км 3/1 1500 м
[Cu hum Ci fib]
+22.0 +6.7 37 +23 +23 комфорт 1017.2 973.9 +25.8 1.9
С 5 >70 км 3/0
[Ci fib]
+19.7 +5.8 40 +20 +20 1017.9 974.2
С 3 >70 км 1/0
[Ci sp]
+18.4 +5.8 44 +19 +19 1018.6 974.7
С 3 30 км н/о +17.8 +5.5 44 +18 +18 1018.9 974.9 1.9
С 3 35 км н/о +17.5 +5.7 46 +18 +18 1019.2 975.1
С 3 35 км н/о +16.7 +5.5 48 +17 +17 1019.5 975.3
С 2 35 км н/о +15.3 +6.1 54 +15 +15 1020.0 975.6 0.0 1.9
СВ 1 35 км н/о +14.1 +6.0 58 +15 +15 1020.4 975.8
СВ 2 35 км н/о +14.0 +6.0 59 +14 +14 1020.5 975.9
СВ 2 35 км н/о +13.9 +5.8 58 +14 +14 1020.7 976.0 1.8
СВ 2 35 км н/о +13.8 +5.8 58 +13 +13 1020.9 976.2 1.8
СВ 2 35 км н/о +14.5 +6.2 57 +14 +14 1021.0 976.4
С 3 >70 км 4/0
[Ci sp]
+16.4 +7.2 54 +16 +19 1021.2 976.9 +13.3 1.8
СВ 1 70 км 3/0
[Ci sp]
+19.2 +7.7 47 +21 +28 комфорт 1020.9 977.0
СВ 2 60 км 1/0
[Ci sp]
+20.2 +7.4 43 +22 +31 комфорт 1020.9 977.2
нст 1 60 км 1/1 900 м
[Cu hum Ac trans Ci fib]
+21.9 +8.9 43 +23 +36 комфорт 1020.4 977.0 1.8
ЮЗ 2 >70 км 4/1 960 м
[Cu hum Ac trans Ci fib]
+22.9 +8.1 39 +24 +35 комфорт 1020.3 977.0
ЮЗ 3 >70 км 5/1 1080 м
[Cu hum Ac lent Ci fib]
+23.6 +8.0 37 +24 +33 комфорт 1019.8 976.6
З 2 >70 км 4/1 1200 м
[Cu hum Ac lent Ci fib]
+25.5 +8.2 33 +26 +37 жарко 1019.0 976.1 1.8
З 3 >70 км 6/1 1200 м
[Cu hum Ac trans Ci sp]
+25.6 +6.2 29 +25 +32 комфорт 1018.6 975.7
СЗ 3 >70 км 6/1 1300 м
[Cu hum Ci fib]
+26.3 +3.4 23 +25 +32 комфорт 1018.0 975.2
СЗ 4 >70 км 6/1 1500 м
[Cu hum Ci fib]
+26.2 +4.4 25 +25 +29 комфорт 1017.8 975.0 1.8
СЗ 3 35 км н/о +26.4 +4.7 25 +26 +26 жарко 1017.7 975.0
С 4 35 км н/о +24.7 +5.1 28 +24 +24 комфорт 1017.7 974.7
С 5 >70 км 4/0
[Ac trans Ci sp]
+23.1 +5.4 32 +23 +24 комфорт 1017.5 974.3 +26.7 1.9
С 4 >70 км 4/0
[Ac trans Ci sp]
+21.1 +3.8 32 +21 +21 комфорт 1017.8 974.3
СВ 3 70 км 1/0
[Ac trans Ci sp]
+19.7 +4.3 36 +20 +20 1018.6 974.9
СВ 2 35 км н/о +19.5 +3.3 34 +20 +20 1018.7 974.9 1.9
СВ 2 35 км н/о +17.3 +3.7 40 +18 +18 1019.4 975.3
СВ 2 35 км н/о +17.2 +3.9 41 +18 +18 1019.3 975.2
СВ 1 35 км н/о +17.2 +2.7 38 +18 +18 1019.1 975.0 1.9
СВ 2 35 км н/о +16.7 +3.2 40 +17 +17 1019.1 974.9
СВ 2 35 км н/о +16.4 +3.3 42 +17 +17 1018.8 974.6
С 2 35 км н/о +16.1 +3.5 43 +16 +16 1018.9 974.6 1.9
С 3 35 км н/о +15.5 +4.1 47 +15 +15 1019.2 974.8
СВ 1 35 км н/о +15.9 +4.7 47 +17 +17 1019.3 975.0
С 1 >70 км 6/0
[Cc]
+16.9 +6.0 49 +18 +21 1019.5 975.3 +15.1 1.8
С 5 >70 км 1/0
[Ci fib]
+19.2 +5.6 41 +19 +23 1019.0 975.2
С 4 70 км 6/0
[Ci fib]
+20.1 +5.6 39 +21 +26 комфорт 1018.9 975.2
С 3 >70 км 1/0
[Ci fib]
+21.3 +6.8 39 +22 +32 комфорт 1018.8 975.3 1.8
С 4 >70 км 1/0
[Ci sp]
+22.5 +7.3 38 +23 +33 комфорт 1018.4 975.1
С 3 >70 км 1/0
[Ci sp]
+24.2 +8.5 37 +25 +38 комфорт 1017.8 974.8
С 4 >70 км 1/1 2000 м
[Cu hum Ci sp]
+24.7 +8.4 35 +25 +34 комфорт 1017.3 974.4 1.8
СЗ 4 >70 км 3/1 1500 м
[Cu hum Ac trans Ci sp]
+25.8 +8.9 34 +26 +33 жарко 1016.7 974.0
С 3 >70 км 4/1 1500 м
[Cu hum Ac trans Ci fib]
+25.6 +9.0 35 +26 +32 жарко 1016.6 973.8
С 4 >70 км 4/1 2000 м
[Cu hum Ac lent Ci fib]
+25.9 +9.0 34 +26 +30 жарко 1016.3 973.6 1.8
С 4 35 км н/о +25.8 +9.6 36 +26 +26 жарко 1016.1 973.4 1.8
С 5 35 км н/о +25.0 +9.6 38 +26 +26 жарко 1015.9 973.1 1.9
С 5 >70 км 1/0
[Ac lent Ci sp]
+23.6 +9.6 41 +25 +25 комфорт 1016.1 973.1 +26.5 1.9
С 3 >70 км 1/0
[Ci sp]
+21.9 +9.6 45 +23 +23 комфорт 1016.7 973.4
>70 км 1/0
[Ci sp]
+20.4 +9.3 49 1017.2 973.7
нст 1 35 км {дымка} н/о +19.0 +9.3 53 +21 +21 комфорт 1017.5 973.8 1.9
В 2 35 км н/о +19.0 +6.8 45 +20 +20 1017.6 973.8
ЮВ 2 35 км н/о +17.9 +7.3 50 +18 +18 1017.9 974.0
СВ 2 35 км {дымка} н/о +16.5 +6.1 50 +17 +17 1018.0 973.8 1.9
ЮВ 1 35 км н/о +16.6 +6.4 51 +18 +18 1017.6 973.5
В 1 35 км н/о +15.9 +7.1 56 +17 +17 1017.6 973.4
В 1 35 км н/о +15.2 +6.3 55 +16 +16 1017.4 973.1 1.9
В 2 35 км н/о +16.6 +6.0 50 +17 +17 1017.0 972.9
35 км н/о +16.4 +6.0 50 1017.2 973.1
нст 1 >70 км 1/0
[Ci sp]
+18.8 +9.8 56 +21 +24 комфорт 1017.1 973.4 +15.1 1.8
ЮЗ 2 60 км 1/0
[Ci sp]
+20.5 +6.8 41 +22 +28 комфорт 1016.7 973.2
Ю 2 >70 км 1/0
[Ci sp]
+22.3 +7.8 39 +23 +33 комфорт 1016.1 972.9
Ю 2 60 км 1/0
[Ci sp]
+23.8 +7.5 35 +24 +36 комфорт 1015.6 972.6 1.8
ЮЗ 2 >70 км 1/0
[Ci sp]
+24.8 +6.8 32 +25 +39 комфорт 1015.3 972.5
З 3 >70 км 1/0
[Ci sp]
+27.5 +8.1 29 +27 +40 жарко 1014.6 972.2
СЗ 2 >70 км 1/0
[Ci sp]
+27.7 +8.8 30 +28 +42 жарко 1014.0 971.6 1.8
З 2 >70 км 5/1 1200 м
[Cu hum Ci sp]
+28.7 +9.2 30 +29 +39 жарко 1013.3 971.1
СВ 2 >70 км 5/1 1260 м
[Cu hum Ci sp]
+29.4 +9.7 29 +29 +37 жарко 1012.8 970.7
В 2 >70 км 5/1 1320 м
[Cu hum Ci fib]
+29.5 +9.3 28 +29 +34 жарко 1012.5 970.5 1.8
СВ 3 35 км {дымка} н/о +29.2 +9.3 29 +29 +29 жарко 1012.4 970.3 1.9
В 3 35 км н/о +27.7 +7.8 28 +27 +27 жарко 1012.1 969.8
В 3 60 км 8/0
[Cs]
+25.6 +8.6 34 +26 +26 жарко 1012.4 969.8 +30.0 1.9
В 3 60 км 4/0
[Ac As Ci fib]
+23.3 +7.4 36 +24 +24 комфорт 1012.8 969.9
В 3 60 км 1/0
[Ac As Ci fib]
+22.1 +6.7 37 +23 +23 комфорт 1013.4 970.3
В 2 35 км н/о +21.2 +7.1 40 +22 +22 комфорт 1013.8 970.5 1.9
В 3 35 км н/о +21.4 +6.1 37 +22 +22 комфорт 1013.8 970.5
В 3 35 км н/о +20.7 +7.0 41 +22 +22 комфорт 1013.9 970.5
В 2 35 км н/о +20.8 +8.7 46 +23 +23 комфорт 1013.9 970.6 1.9
В 1 35 км н/о +19.4 +9.1 51 +21 +21 комфорт 1013.9 970.4
В 2 35 км н/о +19.8 +8.8 49 +21 +21 комфорт 1013.3 969.9
нст 1 35 км в посл. час дождь {ливн. дождь} н/о +18.1 +11.0 63 +19 +19 1013.4 969.7 1.9
В 2 35 км в посл. час дождь {ливн. дождь} н/о +18.1 +9.9 59 +19 +19 1013.0 969.3 1.9
35 км н/о +17.9 +9.8 59 1013.3 969.6
нст 1 >70 км 9/1 1500 м
[Cu med, cong Ac cast Ci sp]
+18.4 +11.3 63 +20 +22 1013.3 969.7 +17.3 0.2 0.2
Ю 1 60 км 4/0
[Ac cast Ci fib]
+20.0 +10.9 56 +23 +29 комфорт 1012.4 969.1
Ю 2 60 км 6/0
[Ac As Ci fib]
+22.0 +11.5 51 +24 +32 комфорт 1011.9 968.9
Ю 3 60 км 9/1 1050 м
[Cu hum Ac trans Cs]
+23.6 +11.1 45 +25 +30 комфорт 1011.9 969.1 1.8
Ю 2 60 км 9/1 1200 м
[Cu med, cong Ac trans Cs]
+25.4 +11.7 42 +27 +34 жарко 1011.5 969.0
ЮЗ 2 50 км 9/1 1260 м
[Cu med, cong Ac trans Cs]
+25.8 +11.6 41 +27 +35 жарко 1011.1 968.6
Ю 3 50 км 9/1 1500 м
[Cb calv Ac trans Cs]
+26.6 +12.0 40 +28 +34 жарко 1010.4 968.1 1.8
Ю 1 50 км 9/1 1500 м
[Cu med, cong Ac trans Cs]
+27.0 +12.7 41 +29 +36 жарко 1010.0 967.8
В 1 45 км осадки на расстоянии 9/5 1500 м
[Cu med, cong Ac As Cs]
+26.1 +12.9 44 +28 +31 жарко 1010.0 967.6
С 3 30 км слаб. дождь 10/3 1500 м
[Cu med, cong Ac As]
+24.6 +12.2 46 +26 +27 жарко 1010.2 967.6 1.9
Ю 2 29 км слаб. дождь н/о +22.4 +15.2 64 +26 +26 жарко 1011.3 968.4 1.9
С 7
{14}
26 км слаб. дождь н/о +17.7 +15.3 86 +17 +17 1012.2 968.6
С 3
{14}
4000 м ливневой дождь, в посл. час гроза 10/3 1410 м
[Cu med, cong As op]
+16.6 +15.4 93 +16 +16 1013.2 969.4 +28.1 5 1.9
СВ 3 4000 м дождь 10/3 1200 м
[Cu hum As op]
+16.0 +15.0 94 +15 +15 1012.7 968.8
В 3 20 км слаб. дождь 10/1 210 м
[Frnb As op]
+16.1 +15.0 93 +16 +16 1012.7 968.8
С 2 21 км в посл. час дождь н/о +15.9 +15.0 94 +16 +16 1012.7 968.8 1.9
С 2 16 км н/о +15.8 +14.7 93 +16 +16 1012.7 968.8
СВ 2 22 км н/о +15.8 +14.6 93 +16 +16 1012.5 968.6
С 2 30 км {дождь, дымка} н/о +16.1 +14.3 89 +16 +16 1012.1 968.3 8 1.9
СВ 3 27 км н/о +15.5 +14.2 92 +15 +15 1011.8 967.9
С 4 25 км н/о +16.1 +14.4 90 +15 +15 1011.6 967.8
С 4 26 км {дымка} н/о +15.9 +14.0 88 +15 +15 1011.3 967.5 1.9
С 4 30 км н/о +16.0 +13.7 86 +15 +15 1011.2 967.4 1.9
С 3 20 км н/о +15.7 +13.5 87 +15 +15 1011.4 967.5
С 4 30 км дождь 10/8 330 м
[Cu Sc As op]
+15.3 +13.7 90 +14 +14 1011.3 967.4 +15.1 9 14.0
С 4 29 км слаб. дождь 10/4 400 м
[Cu Sc As op]
+15.4 +13.8 90 +14 +15 1011.4 967.5
С 4 40 км слаб. дождь 10/4 400 м
[Cu Sc Ac As]
+15.6 +13.9 90 +15 +16 1011.1 967.2
С 4 35 км слаб. дождь 10/8 360 м
[Cu Sc As op]
+15.9 +13.8 87 +15 +15 1011.0 967.2 1.8
С 5 27 км слаб. дождь 10/6 240 м
[Cu med, cong As op]
+15.5 +13.8 90 +14 +15 1011.3 967.4
С 6 35 км слаб. дождь 10/9 180 м
[Sc As op]
+15.2 +14.0 93 +14 +14 1011.3 967.3
С 4 35 км слаб. дождь 10/10 180 м
[Sc]
+15.5 +13.9 90 +14 +14 1011.0 967.1 2 1.8
С 5 60 км в посл. час дождь 10/9 150 м
[Sc As trans]
+15.4 +13.8 90 +14 +14 1010.8 966.9
С 4 60 км слаб. морось 10/10 150 м
[St]
+14.8 +13.2 90 +14 +14 1010.6 966.6
Местоположение метеостанции Усти-над-Лабем (Чехия): широта 50.68 долгота 14.03 высота над уровнем моря 379 м.
В архиве по умолчанию представлена погода в Усти-над-Лабем за последнюю неделю. Архивные данные за месяц целиком и за предыдущие месяцы, начиная с января 2011 года, Вы можете получить, выбрав интересующий диапазон дат из раскрывающегося списка и нажав кнопку "Найти!".
*Определитесь, кто Вы:
Внимание! Время в таблицах - всемирное. Для получения местного времени необходимо прибавить поправку, которая равна 1 ч.
Смотрите также архив погоды в соседних городах и на ближайших метеорологических станциях:
Партнеры нашего сайта:      
Пояснения к столбцам:
  • Ветер - указаны скорость ветра в м/с - средняя за 10 мин, порывы в срок и между сроками (в фигурных скобках) и направление, откуда дует ветер: С - северный,
  • СВ - северо-восточный, В - восточный, ЮВ - юго-восточный, Ю - южный, ЮЗ - юго-западный, З - западный, СЗ - северо-западный.
  • Видимость - горизонтальная дальность видимости в метрах или километрах. При видимости от 1 до 10 км при отсутствии осадков обычно наблюдается дымка, при ухудшении видимости до 1 км и менее - туман. В сухую погоду видимость может ухудшаться дымом, пылью или мглою.
  • Явления - указаны атмосферные явления, наблюдавшиеся в срок или в последний час перед сроком; фигурными скобками обозначены явления, наблюдавшиеся между сроками (за 1-3 часа до срока); квадратными скобками обозначены град или гололедные отложения с указанием их диаметра в мм.
  • Облачность - указаны через наклонную черту общая и нижняя облачность в баллах и высота нижней границы облаков в метрах; квадратными скобками обозначены формы облаков: Ci - перистые, Cs - перисто-слоистые, Cc - перисто-кучевые, Ac - высококучевые, As - высокослоистые, Sc - слоисто-кучевые, Ns - слоисто-дождевые, Cu - кучевые, Cb - кучево-дождевые. Подробнее классификацию облаков см. в Атласе облаков (PDF).
  • T - Температура воздуха - температура, измеренная на высоте 2 м над землей.
  • Td - Температура точки росы - температура, при понижении до которой содержащийся в воздухе водяной пар достигнет насыщения.
  • f - Относительная влажность воздуха - влажноcть воздуха, измеренная на высоте 2 м над землей.
  • Te - Эффективная температура - температура, которую ощущает одетый по сезону человек в тени. Характеристика душности погоды. При расчете учитывается влияние влажности воздуха и скорости ветра на теплоощущения человека.
  • Tes - Эффективная температура на солнце - температура, которую ощущает человек, с поправкой на солнечный нагрев. Характеристика знойности погоды. Зависит от высоты солнца над горизонтом, облачности и скорости ветра. Ночью, в пасмурную погоду, а также при ветре 12 м/с и более поправка равна нулю.
  • P - Атмосферное давление - приведенное к уровню моря атмосферное давление.
  • Po - Атмосферное давление - измеренное на уровне метеостанции атмосферное давление.
  • Tmin - Минимальная температура - минимум температуры воздуха на высоте 2 м над землей.
  • Tmax - Максимальная температура - максимум температуры воздуха на высоте 2 м над землей.
  • R - Количество осадков - Количество выпавших осадков за период времени, мм. При наведении курсора мыши на число - период времени, за который выпало указанное количество осадков.
  • R24 - Количество осадков - Количество выпавших осадков за 24 часа, мм.
  • S - Снежный покров - Высота снежного покрова, см. При наведении курсора мыши на число - состояние снежного покрова и степень покрытия местности в баллах.